Time,TemperatureF,DewpointF,PressureIn,WindDirection,WindDirectionDegrees,WindSpeedMPH,WindSpeedGustMPH,Humidity,HourlyPrecipIn,Conditions,Clouds,dailyrainin,SoftwareType,DateUTC
2013-06-05 00:12:00,60.7,33.0,29.42,WSW,250,9.0,17.0,35,0.00,,,0.00,weatherlink.com 1.10,2013-06-05 07:12:00,
2013-06-05 00:27:00,61.0,34.0,29.42,WSW,252,7.0,16.0,36,0.00,,,0.00,weatherlink.com 1.10,2013-06-05 07:27:00,
2013-06-05 00:42:00,60.6,31.0,29.42,WSW,246,7.0,14.0,33,0.00,,,0.00,weatherlink.com 1.10,2013-06-05 07:42:00,
2013-06-05 00:57:00,60.1,32.0,29.42,SSW,194,4.0,10.0,35,0.00,,,0.00,weatherlink.com 1.10,2013-06-05 07:57:00,
2013-06-05 01:12:00,60.0,33.0,29.41,SW,229,4.0,10.0,37,0.00,,,0.00,weatherlink.com 1.10,2013-06-05 08:12:00,
2013-06-05 01:27:00,59.6,33.0,29.41,SW,226,4.0,8.0,37,0.00,,,0.00,weatherlink.com 1.10,2013-06-05 08:27:00,
2013-06-05 01:42:00,59.5,33.0,29.41,SW,233,7.0,13.0,37,0.00,,,0.00,weatherlink.com 1.10,2013-06-05 08:42:00,
2013-06-05 01:58:00,59.6,32.0,29.41,WSW,246,8.0,13.0,35,0.00,,,0.00,weatherlink.com 1.10,2013-06-05 08:58:00,
2013-06-05 02:12:00,59.5,31.0,29.40,West,276,8.0,11.0,34,0.00,,,0.00,weatherlink.com 1.10,2013-06-05 09:12:00,
2013-06-05 02:27:00,59.5,30.0,29.40,SW,215,4.0,14.0,33,0.00,,,0.00,weatherlink.com 1.10,2013-06-05 09:27:00,
2013-06-05 02:42:00,59.7,31.0,29.40,WSW,239,7.0,13.0,34,0.00,,,0.00,weatherlink.com 1.10,2013-06-05 09:42:00,
2013-06-05 02:57:00,59.3,32.0,29.40,East,100,7.0,12.0,36,0.00,,,0.00,weatherlink.com 1.10,2013-06-05 09:57:00,
2013-06-05 03:12:00,59.2,33.0,29.40,SSW,210,4.0,12.0,38,0.00,,,0.00,weatherlink.com 1.10,2013-06-05 10:12:00,
2013-06-05 03:27:00,59.1,35.0,29.40,WNW,283,14.0,16.0,40,0.00,,,0.00,weatherlink.com 1.10,2013-06-05 10:27:00,
2013-06-05 03:42:00,58.9,35.0,29.40,West,263,8.0,12.0,41,0.00,,,0.00,weatherlink.com 1.10,2013-06-05 10:42:00,
2013-06-05 03:57:00,58.5,35.0,29.40,NNW,333,6.0,13.0,41,0.00,,,0.00,weatherlink.com 1.10,2013-06-05 10:57:00,
2013-06-05 04:12:00,58.4,35.0,29.41,West,281,6.0,13.0,41,0.00,,,0.00,weatherlink.com 1.10,2013-06-05 11:12:00,
2013-06-05 04:27:00,58.0,34.0,29.40,SW,232,8.0,9.0,40,0.00,,,0.00,weatherlink.com 1.10,2013-06-05 11:27:00,
2013-06-05 04:42:00,57.8,29.0,29.40,SW,231,5.0,14.0,33,0.00,,,0.00,weatherlink.com 1.10,2013-06-05 11:42:00,
2013-06-05 04:57:00,57.5,25.0,29.41,West,276,2.0,9.0,29,0.00,,,0.00,weatherlink.com 1.10,2013-06-05 11:57:00,
2013-06-05 05:12:00,57.0,21.0,29.41,SW,221,6.0,7.0,25,0.00,,,0.00,weatherlink.com 1.10,2013-06-05 12:12:00,
2013-06-05 05:28:00,56.5,19.0,29.42,SSW,194,3.0,6.0,23,0.00,,,0.00,weatherlink.com 1.10,2013-06-05 12:28:00,
2013-06-05 05:43:00,57.6,17.0,29.43,SW,229,4.0,7.0,20,0.00,,,0.00,weatherlink.com 1.10,2013-06-05 12:43:00,
2013-06-05 05:58:00,59.3,14.0,29.43,WNW,296,4.0,9.0,17,0.00,,,0.00,weatherlink.com 1.10,2013-06-05 12:58:00,
2013-06-05 06:13:00,61.3,8.0,29.44,SW,218,5.0,10.0,12,0.00,,,0.00,weatherlink.com 1.10,2013-06-05 13:13:00,
2013-06-05 06:28:00,62.3,9.0,29.45,SSE,160,0.0,5.0,12,0.00,,,0.00,weatherlink.com 1.10,2013-06-05 13:28:00,
2013-06-05 06:43:00,64.4,23.0,29.45,NE,39,2.0,2.0,21,0.00,,,0.00,weatherlink.com 1.10,2013-06-05 13:43:00,
2013-06-05 06:58:00,65.5,23.0,29.44,East,83,0.0,2.0,20,0.00,,,0.00,weatherlink.com 1.10,2013-06-05 13:58:00,
2013-06-05 07:13:00,65.5,26.0,29.44,NE,52,1.0,4.0,22,0.00,,,0.00,weatherlink.com 1.10,2013-06-05 14:13:00,
2013-06-05 07:28:00,64.5,26.0,29.45,ENE,77,4.0,5.0,23,0.00,,,0.00,weatherlink.com 1.10,2013-06-05 14:28:00,
2013-06-05 07:43:00,64.1,25.0,29.45,ENE,70,4.0,5.0,23,0.00,,,0.00,weatherlink.com 1.10,2013-06-05 14:43:00,
2013-06-05 07:58:00,64.7,26.0,29.45,East,98,5.0,6.0,23,0.00,,,0.00,weatherlink.com 1.10,2013-06-05 14:58:00,
2013-06-05 08:13:00,65.2,29.0,29.46,NNW,328,2.0,6.0,26,0.00,,,0.00,weatherlink.com 1.10,2013-06-05 15:13:00,
2013-06-05 08:28:00,65.5,30.0,29.46,West,267,1.0,5.0,27,0.00,,,0.00,weatherlink.com 1.10,2013-06-05 15:28:00,
2013-06-05 08:43:00,65.6,29.0,29.46,NE,50,4.0,5.0,25,0.00,,,0.00,weatherlink.com 1.10,2013-06-05 15:43:00,
2013-06-05 08:58:00,66.2,29.0,29.46,NNW,338,2.0,7.0,25,0.00,,,0.00,weatherlink.com 1.10,2013-06-05 15:58:00,
2013-06-05 09:13:00,66.6,30.0,29.46,WNW,290,1.0,4.0,25,0.00,,,0.00,weatherlink.com 1.10,2013-06-05 16:13:00,
2013-06-05 09:28:00,66.7,30.0,29.46,NW,318,2.0,6.0,25,0.00,,,0.00,weatherlink.com 1.10,2013-06-05 16:28:00,
2013-06-05 09:43:00,67.5,28.0,29.46,NW,322,2.0,5.0,23,0.00,,,0.00,weatherlink.com 1.10,2013-06-05 16:43:00,
2013-06-05 09:58:00,69.0,30.0,29.46,West,264,2.0,4.0,23,0.00,,,0.00,weatherlink.com 1.10,2013-06-05 16:58:00,
2013-06-05 10:13:00,68.8,29.0,29.46,WSW,250,2.0,4.0,23,0.00,,,0.00,weatherlink.com 1.10,2013-06-05 17:13:00,
2013-06-05 10:28:00,69.7,29.0,29.46,West,267,1.0,3.0,22,0.00,,,0.00,weatherlink.com 1.10,2013-06-05 17:28:00,
2013-06-05 10:43:00,69.9,27.0,29.46,NW,304,1.0,6.0,20,0.00,,,0.00,weatherlink.com 1.10,2013-06-05 17:43:00,
2013-06-05 10:58:00,69.4,28.0,29.46,SE,129,3.0,10.0,21,0.00,,,0.00,weatherlink.com 1.10,2013-06-05 17:58:00,
2013-06-05 11:13:00,71.7,30.0,29.46,NW,322,1.0,8.0,21,0.00,,,0.00,weatherlink.com 1.10,2013-06-05 18:13:00,
2013-06-05 11:28:00,71.8,26.0,29.46,NW,315,2.0,8.0,18,0.00,,,0.00,weatherlink.com 1.10,2013-06-05 18:28:00,
2013-06-05 11:43:00,73.7,26.0,29.46,NNW,327,1.0,5.0,17,0.00,,,0.00,weatherlink.com 1.10,2013-06-05 18:43:00,
2013-06-05 11:58:00,74.8,27.0,29.46,NNE,27,2.0,9.0,17,0.00,,,0.00,weatherlink.com 1.10,2013-06-05 18:58:00,
2013-06-05 12:13:00,74.7,24.0,29.45,WNW,294,1.0,3.0,15,0.00,,,0.00,weatherlink.com 1.10,2013-06-05 19:13:00,
2013-06-05 12:28:00,75.0,24.0,29.45,NW,314,3.0,4.0,15,0.00,,,0.00,weatherlink.com 1.10,2013-06-05 19:28:00,
2013-06-05 12:43:00,74.9,24.0,29.45,NE,39,3.0,6.0,15,0.00,,,0.00,weatherlink.com 1.10,2013-06-05 19:43:00,
2013-06-05 12:58:00,75.1,24.0,29.44,NE,53,4.0,7.0,15,0.00,,,0.00,weatherlink.com 1.10,2013-06-05 19:58:00,
2013-06-05 13:13:00,74.1,25.0,29.44,North,359,4.0,10.0,16,0.00,,,0.00,weatherlink.com 1.10,2013-06-05 20:13:00,
2013-06-05 13:28:00,73.7,23.0,29.44,SW,222,8.0,8.0,15,0.00,,,0.00,weatherlink.com 1.10,2013-06-05 20:28:00,
2013-06-05 13:43:00,71.7,20.0,29.44,WSW,238,8.0,13.0,14,0.00,,,0.00,weatherlink.com 1.10,2013-06-05 20:43:00,
2013-06-05 13:58:00,70.5,19.0,29.43,West,262,5.0,15.0,14,0.00,,,0.00,weatherlink.com 1.10,2013-06-05 20:58:00,
2013-06-05 14:13:00,71.2,19.0,29.43,South,183,6.0,20.0,14,0.00,,,0.00,weatherlink.com 1.10,2013-06-05 21:13:00,
2013-06-05 14:28:00,70.8,14.0,29.43,West,264,8.0,14.0,11,0.00,,,0.00,weatherlink.com 1.10,2013-06-05 21:28:00,
2013-06-05 14:43:00,70.7,16.0,29.43,WSW,246,10.0,15.0,12,0.00,,,0.00,weatherlink.com 1.10,2013-06-05 21:43:00,
2013-06-05 14:58:00,70.7,16.0,29.43,South,188,10.0,20.0,12,0.00,,,0.00,weatherlink.com 1.10,2013-06-05 21:58:00,
2013-06-05 15:13:00,70.6,15.0,29.43,SW,215,1.0,18.0,12,0.00,,,0.00,weatherlink.com 1.10,2013-06-05 22:13:00,
2013-06-05 15:28:00,70.8,17.0,29.42,West,266,6.0,19.0,13,0.00,,,0.00,weatherlink.com 1.10,2013-06-05 22:28:00,
2013-06-05 15:43:00,71.0,14.0,29.42,West,269,2.0,14.0,11,0.00,,,0.00,weatherlink.com 1.10,2013-06-05 22:43:00,
2013-06-05 15:58:00,71.8,14.0,29.42,North,8,4.0,12.0,11,0.00,,,0.00,weatherlink.com 1.10,2013-06-05 22:58:00,
2013-06-05 16:13:00,71.2,14.0,29.42,SSW,198,4.0,13.0,11,0.00,,,0.00,weatherlink.com 1.10,2013-06-05 23:13:00,
2013-06-05 16:28:00,70.9,19.0,29.41,West,263,8.0,18.0,14,0.00,,,0.00,weatherlink.com 1.10,2013-06-05 23:28:00,
2013-06-05 16:58:00,70.7,19.0,29.40,WSW,256,6.0,14.0,14,0.00,,,0.00,weatherlink.com 1.10,2013-06-05 23:58:00,
2013-06-05 17:14:00,70.9,18.0,29.40,SW,215,7.0,13.0,13,0.00,,,0.00,weatherlink.com 1.10,2013-06-06 00:14:00,
2013-06-05 17:29:00,70.1,20.0,29.40,SW,229,8.0,18.0,15,0.00,,,0.00,weatherlink.com 1.10,2013-06-06 00:29:00,
2013-06-05 17:44:00,70.2,19.0,29.40,SW,221,11.0,15.0,14,0.00,,,0.00,weatherlink.com 1.10,2013-06-06 00:44:00,
2013-06-05 17:59:00,69.9,18.0,29.40,West,262,3.0,12.0,14,0.00,,,0.00,weatherlink.com 1.10,2013-06-06 00:59:00,
2013-06-05 18:13:00,69.1,18.0,29.40,WSW,243,7.0,18.0,14,0.00,,,0.00,weatherlink.com 1.10,2013-06-06 01:13:00,
2013-06-05 18:28:00,68.4,20.0,29.40,West,259,7.0,13.0,16,0.00,,,0.00,weatherlink.com 1.10,2013-06-06 01:28:00,
2013-06-05 18:43:00,68.1,19.0,29.40,East,84,11.0,13.0,15,0.00,,,0.00,weatherlink.com 1.10,2013-06-06 01:43:00,
2013-06-05 18:58:00,66.8,19.0,29.40,WSW,257,7.0,11.0,16,0.00,,,0.00,weatherlink.com 1.10,2013-06-06 01:58:00,
2013-06-05 19:13:00,65.8,18.0,29.40,WSW,253,9.0,13.0,16,0.00,,,0.00,weatherlink.com 1.10,2013-06-06 02:13:00,
2013-06-05 19:28:00,64.6,19.0,29.41,SW,224,7.0,10.0,17,0.00,,,0.00,weatherlink.com 1.10,2013-06-06 02:28:00,
2013-06-05 19:43:00,63.9,18.0,29.41,SW,231,10.0,16.0,17,0.00,,,0.00,weatherlink.com 1.10,2013-06-06 02:43:00,
2013-06-05 19:58:00,63.6,19.0,29.41,SW,224,6.0,12.0,18,0.00,,,0.00,weatherlink.com 1.10,2013-06-06 02:58:00,
2013-06-05 20:13:00,63.4,18.0,29.41,WSW,250,7.0,12.0,17,0.00,,,0.00,weatherlink.com 1.10,2013-06-06 03:13:00,
2013-06-05 20:28:00,63.0,17.0,29.42,WSW,243,5.0,12.0,17,0.00,,,0.00,weatherlink.com 1.10,2013-06-06 03:28:00,
2013-06-05 20:43:00,63.2,16.0,29.43,SW,215,11.0,13.0,16,0.00,,,0.00,weatherlink.com 1.10,2013-06-06 03:43:00,
2013-06-05 20:58:00,62.3,17.0,29.43,West,264,5.0,10.0,17,0.00,,,0.00,weatherlink.com 1.10,2013-06-06 03:58:00,
2013-06-05 21:13:00,63.5,20.0,29.43,SSW,210,8.0,17.0,19,0.00,,,0.00,weatherlink.com 1.10,2013-06-06 04:13:00,
2013-06-05 21:29:00,63.2,21.0,29.43,West,268,13.0,16.0,20,0.00,,,0.00,weatherlink.com 1.10,2013-06-06 04:29:00,
2013-06-05 21:43:00,63.1,21.0,29.44,WSW,253,8.0,14.0,20,0.00,,,0.00,weatherlink.com 1.10,2013-06-06 04:43:00,
2013-06-05 21:58:00,63.4,22.0,29.44,WSW,253,6.0,20.0,20,0.00,,,0.00,weatherlink.com 1.10,2013-06-06 04:58:00,
2013-06-05 22:13:00,63.1,21.0,29.44,West,264,12.0,18.0,20,0.00,,,0.00,weatherlink.com 1.10,2013-06-06 05:13:00,
2013-06-05 22:28:00,63.3,20.0,29.44,West,260,13.0,20.0,19,0.00,,,0.00,weatherlink.com 1.10,2013-06-06 05:28:00,
2013-06-05 22:44:00,63.0,19.0,29.44,WSW,245,13.0,20.0,18,0.00,,,0.00,weatherlink.com 1.10,2013-06-06 05:44:00,
2013-06-05 22:59:00,63.1,19.0,29.44,West,276,11.0,22.0,18,0.00,,,0.00,weatherlink.com 1.10,2013-06-06 05:59:00,
2013-06-05 23:14:00,62.9,17.0,29.45,WSW,257,20.0,21.0,17,0.00,,,0.00,weatherlink.com 1.10,2013-06-06 06:14:00,
2013-06-05 23:29:00,63.0,17.0,29.44,WSW,245,11.0,21.0,17,0.00,,,0.00,weatherlink.com 1.10,2013-06-06 06:29:00,
2013-06-05 23:44:00,62.6,17.0,29.44,West,277,12.0,17.0,17,0.00,,,0.00,weatherlink.com 1.10,2013-06-06 06:44:00,
2013-06-05 23:59:00,62.0,16.0,29.44,SW,230,9.0,14.0,17,0.00,,,0.00,weatherlink.com 1.10,2013-06-06 06:59:00,